TimeCST,TemperatureF,Dew PointF,Humidity,Sea Level PressureIn,VisibilityMPH,Wind Direction,Wind SpeedMPH,Gust SpeedMPH,PrecipitationIn,Events,Conditions,WindDirDegrees,DateUTC
12:53 AM,48.0,30.0,50,29.91,10.0,NNW,6.9,-,N/A,,Clear,330,2012-12-24 06:53:00
1:53 AM,46.0,30.0,54,29.91,10.0,NW,6.9,-,N/A,,Clear,320,2012-12-24 07:53:00
2:53 AM,44.1,30.0,58,29.92,10.0,NW,4.6,-,N/A,,Clear,310,2012-12-24 08:53:00
3:53 AM,42.1,28.9,60,29.92,10.0,NNW,4.6,-,N/A,,Clear,330,2012-12-24 09:53:00
4:53 AM,39.9,28.9,65,29.93,10.0,NW,4.6,-,N/A,,Clear,310,2012-12-24 10:53:00
5:53 AM,37.0,28.0,70,29.95,10.0,NNW,4.6,-,N/A,,Clear,340,2012-12-24 11:53:00
6:53 AM,37.0,28.0,70,29.97,10.0,NNW,8.1,-,N/A,,Clear,330,2012-12-24 12:53:00
7:53 AM,36.0,28.0,73,29.99,9.0,NNW,6.9,-,N/A,,Clear,330,2012-12-24 13:53:00
8:53 AM,39.0,28.9,67,30.00,9.0,NNW,9.2,-,N/A,,Clear,330,2012-12-24 14:53:00
9:53 AM,44.1,30.0,58,30.02,9.0,North,5.8,-,N/A,,Clear,360,2012-12-24 15:53:00
10:53 AM,48.0,30.0,50,30.01,9.0,North,5.8,-,N/A,,Clear,360,2012-12-24 16:53:00
11:53 AM,52.0,30.0,43,29.98,10.0,NNE,4.6,-,N/A,,Clear,20,2012-12-24 17:53:00
12:53 PM,55.9,28.9,36,29.94,10.0,Calm,Calm,-,N/A,,Clear,0,2012-12-24 18:53:00
1:53 PM,57.0,28.9,34,29.91,10.0,SW,3.5,-,N/A,,Clear,230,2012-12-24 19:53:00
2:53 PM,61.0,28.9,30,29.89,10.0,Calm,Calm,-,N/A,,Clear,0,2012-12-24 20:53:00
3:53 PM,60.1,30.0,32,29.86,10.0,SE,4.6,-,N/A,,Clear,140,2012-12-24 21:53:00
4:53 PM,57.9,33.1,39,29.86,10.0,Calm,Calm,-,N/A,,Clear,0,2012-12-24 22:53:00
5:53 PM,52.0,34.0,50,29.86,10.0,NNW,4.6,-,N/A,,Clear,330,2012-12-24 23:53:00
6:53 PM,51.1,33.1,50,29.87,10.0,Calm,Calm,-,N/A,,Clear,0,2012-12-25 00:53:00
7:53 PM,48.9,34.0,56,29.85,10.0,NE,3.5,-,N/A,,Clear,40,2012-12-25 01:53:00
8:53 PM,48.0,34.0,58,29.85,10.0,NE,3.5,-,N/A,,Clear,40,2012-12-25 02:53:00
9:53 PM,46.9,35.1,63,29.83,10.0,ENE,4.6,-,N/A,,Scattered Clouds,60,2012-12-25 03:53:00
10:53 PM,48.0,36.0,63,29.83,10.0,NE,5.8,-,N/A,,Clear,50,2012-12-25 04:53:00
11:53 PM,48.0,37.0,66,29.81,10.0,ENE,6.9,-,N/A,,Clear,70,2012-12-25 05:53:00